Theta_e
327 326 327 328 328 328 327 325 325 324 323 321 319 318 316 316 314 311 309 306 305 303 301 300 299 298 297 296 295 294 293 292 291 291 290 290 291 299 307 313 317 318 321 322 325 324 324 327 328 328 328 327 327 326 326 325 324 323 322 322 322 321 320 320 319 320 320 319 319 320 320 320 319 320 320 321 321 322 323 323 324 324 325 326 326
327 326 326 325 325 325 326 325 324 323 323 321 320 318 316 315 313 311 309 307 304 302 300 300 300 298 297 296 294 293 292 291 290 289 289 289 289 291 301 306 311 315 317 319 321 323 324 325 326 326 327 327 326 326 325 325 324 323 322 322 320 321 320 319 318 319 319 318 318 318 318 318 318 318 319 319 320 320 321 322 322 323 323 323 324
326 325 324 324 323 323 322 322 322 321 322 320 320 318 317 315 313 311 309 306 304 302 301 300 299 298 298 295 293 292 291 290 290 289 288 288 288 288 291 299 304 309 312 315 318 320 321 321 323 325 325 326 327 326 325 323 322 322 321 320 319 318 318 318 317 317 317 317 317 316 317 317 317 317 317 318 318 318 319 320 321 321 322 322 322
325 324 324 323 322 321 321 321 319 319 320 319 318 317 316 315 314 313 311 307 304 302 301 300 298 297 297 295 293 291 290 289 289 288 288 287 287 287 287 290 296 301 306 310 313 315 316 317 319 320 322 322 323 323 323 323 321 320 319 318 318 317 316 316 315 315 316 316 316 315 316 315 316 316 316 316 316 317 317 317 318 319 320 321 321
323 323 322 322 320 319 318 318 318 318 318 316 315 314 313 313 312 311 308 305 302 301 301 299 297 296 295 293 292 290 289 288 288 287 287 287 287 287 286 287 287 293 298 304 308 311 313 314 315 315 317 318 318 320 320 320 319 318 317 317 316 316 315 314 314 314 315 317 316 315 314 315 314 314 314 315 315 315 315 316 316 317 317 318 319
322 320 320 319 318 317 315 314 315 315 314 313 313 313 312 311 309 307 305 302 300 300 299 297 296 294 293 292 291 290 289 287 286 286 286 286 286 286 286 286 286 286 287 295 301 305 309 311 312 312 313 315 317 317 317 317 317 317 315 315 315 315 316 315 315 315 314 315 315 315 314 314 314 314 314 314 314 314 314 314 315 315 316 316 317
319 319 317 316 314 313 312 311 311 311 311 311 311 310 311 309 308 306 304 302 300 299 298 295 293 292 291 291 290 289 288 286 286 285 285 285 285 285 286 286 286 286 286 285 292 300 303 307 309 309 311 312 315 317 318 317 317 316 314 315 315 315 315 314 314 315 315 314 314 313 313 313 313 314 314 313 313 313 313 313 313 314 314 315 315
315 316 315 314 312 310 309 309 308 308 308 308 309 308 307 306 306 305 301 300 298 297 295 293 292 291 291 290 290 289 287 286 286 286 285 285 284 284 284 285 286 286 288 284 285 291 299 301 304 307 308 308 310 312 314 314 314 315 314 314 314 314 313 312 313 313 313 313 312 312 312 311 312 312 312 312 313 313 313 312 313 313 313 313 315
312 312 312 311 309 307 307 307 306 306 305 305 305 306 306 303 302 302 302 299 297 294 293 292 291 290 289 288 287 287 286 286 286 285 286 285 284 284 284 284 286 288 284 284 284 284 291 297 299 303 304 304 305 308 309 311 311 312 312 312 312 313 312 311 311 312 311 311 311 311 311 311 311 311 311 311 312 312 312 313 312 312 313 313 314
310 309 308 307 306 305 305 304 303 302 301 301 300 301 302 302 299 299 300 297 294 292 291 291 291 290 288 287 285 285 284 284 285 287 284 284 284 284 283 282 283 283 283 283 283 284 284 288 293 294 299 301 302 304 306 307 309 310 311 311 312 312 311 311 309 309 309 309 310 310 310 310 310 310 310 311 311 311 312 312 312 312 313 313 313
306 306 306 305 304 303 302 300 299 298 298 297 297 297 299 300 298 297 298 296 294 292 291 291 289 288 286 286 285 284 284 284 284 283 282 283 285 286 284 282 282 282 282 282 283 283 283 284 284 284 287 297 300 302 303 304 305 307 309 310 310 309 310 311 309 308 308 308 309 309 309 309 310 310 309 310 310 310 310 310 311 311 312 313 313
305 305 305 303 301 300 298 297 297 297 296 295 295 297 298 298 298 296 294 294 293 292 291 289 287 286 286 285 285 284 284 283 283 282 282 281 281 282 282 282 281 281 281 282 282 282 283 283 285 283 284 288 295 297 299 301 302 304 305 308 309 309 309 310 308 308 306 306 308 308 308 308 309 309 309 309 309 309 309 309 310 310 311 311 312
303 303 301 299 299 299 295 295 295 295 295 294 295 296 298 298 296 295 293 291 291 291 290 288 286 284 284 284 284 284 286 283 282 282 281 280 280 280 281 281 281 280 280 281 281 282 282 282 283 283 283 282 284 290 293 295 298 303 303 304 307 308 308 308 309 306 306 306 306 307 307 307 307 307 308 308 309 309 309 309 309 310 310 311 311
300 300 298 297 296 296 294 293 293 292 291 292 293 295 295 295 293 291 290 290 287 287 288 288 286 283 283 281 282 283 285 283 282 282 281 281 280 280 280 280 280 280 280 280 281 281 281 282 282 282 281 281 281 282 283 286 291 300 302 302 304 306 307 307 307 305 305 305 305 306 306 306 307 306 306 306 307 308 307 307 308 309 310 310 310
298 297 296 295 294 293 292 292 291 291 291 291 292 293 293 293 292 291 287 284 284 284 283 284 284 282 282 281 280 279 283 281 280 281 281 280 280 280 281 280 279 279 280 280 280 280 281 281 281 281 281 280 280 281 282 285 289 294 298 300 302 304 306 306 306 305 304 304 305 305 305 305 305 306 306 306 306 306 306 306 307 308 308 308 309
295 295 294 293 292 291 290 290 289 290 291 289 289 289 289 290 290 290 290 287 281 282 284 283 284 286 285 283 280 278 278 280 279 281 279 279 280 279 280 279 278 279 279 279 279 279 280 281 281 280 280 280 280 280 281 282 287 291 293 295 297 301 302 304 305 305 304 305 306 305 305 305 305 305 306 306 306 306 306 306 306 306 307 307 307
292 292 292 291 290 290 289 287 286 286 288 289 288 288 288 289 290 290 291 290 282 280 283 283 281 282 285 279 280 282 279 279 276 281 278 279 278 278 281 278 278 279 278 278 278 279 279 280 280 280 279 279 279 279 279 281 282 285 288 294 295 297 299 301 303 304 303 303 305 305 304 304 304 304 305 305 305 305 306 306 305 305 306 306 306
291 291 290 290 288 287 286 285 284 285 286 287 285 284 285 287 289 290 287 287 287 282 281 282 282 282 280 280 282 283 278 278 277 278 278 278 277 278 277 277 276 277 278 278 278 278 280 280 279 279 278 278 278 278 278 280 284 283 288 291 295 296 297 299 301 302 303 303 303 304 304 303 303 303 304 304 304 304 304 305 303 304 305 305 305
289 289 289 288 286 285 284 284 284 284 284 285 285 285 285 285 284 287 287 286 286 284 282 281 280 281 280 279 280 278 278 279 279 277 277 277 275 277 276 277 276 276 278 277 277 278 278 279 278 278 277 278 278 277 278 280 284 287 292 293 295 294 295 295 297 298 300 301 302 302 303 303 303 303 303 303 303 303 304 304 305 305 305 305 305
287 287 287 286 285 284 284 283 283 283 284 285 284 283 284 284 284 284 285 286 286 285 282 279 281 280 281 279 279 278 277 277 276 279 277 275 277 275 275 276 276 276 277 276 277 277 277 278 278 277 277 277 277 277 277 278 279 281 286 292 293 293 294 294 294 295 296 299 300 300 301 301 301 302 302 302 302 302 302 303 303 304 304 303 303
285 285 284 284 284 284 283 283 283 283 284 283 283 283 284 283 283 283 283 282 283 283 282 279 281 279 278 278 278 277 276 277 276 276 275 275 274 275 274 276 275 275 276 276 277 277 277 277 279 278 280 277 277 276 277 277 279 280 287 289 291 293 293 294 294 294 294 294 295 297 298 299 300 300 301 301 301 301 302 302 302 303 302 302 302
283 282 282 282 283 283 283 282 282 283 283 283 282 282 282 283 282 282 282 281 280 281 281 279 280 279 278 279 277 276 277 277 276 275 275 275 277 274 275 274 274 274 276 276 277 276 276 276 276 276 276 276 276 276 276 277 279 282 284 287 288 290 291 292 293 294 293 293 293 293 294 295 297 299 299 301 302 302 302 303 303 303 302 302 303
281 281 281 281 281 282 282 281 282 283 282 282 282 282 282 281 281 281 281 281 280 281 281 279 279 279 278 278 278 277 277 276 276 276 273 273 273 274 274 275 274 274 274 276 278 276 276 276 276 276 276 276 276 276 276 276 281 285 285 285 286 288 289 290 292 293 293 292 292 292 293 293 294 296 297 299 301 302 303 303 302 302 303 303 303
280 280 280 280 281 281 281 281 281 281 281 281 281 281 281 281 281 281 280 280 280 280 279 279 279 279 278 278 278 277 277 276 276 276 275 274 274 273 274 274 274 274 276 276 275 275 275 276 276 275 275 276 276 277 277 276 278 285 282 282 284 286 288 289 292 292 292 292 291 291 292 292 292 293 295 296 299 300 301 302 302 302 302 301 301
280 281 280 280 281 280 280 281 281 281 281 281 281 281 281 281 280 280 280 280 280 280 280 279 279 280 279 278 278 278 277 277 277 276 275 275 274 273 274 274 274 273 274 274 275 275 275 275 276 275 275 276 277 276 276 276 276 283 283 279 282 283 285 287 290 291 291 291 291 291 290 290 291 292 293 294 296 296 298 300 301 301 301 301 300
281 281 281 280 280 281 281 281 280 281 281 281 281 281 281 281 280 280 279 279 279 279 279 278 278 279 278 278 277 277 277 277 276 276 277 276 275 273 273 273 273 273 273 274 273 275 275 275 275 275 275 275 274 275 275 276 276 283 282 278 277 281 283 285 288 289 289 289 290 290 290 289 290 291 292 294 294 295 295 296 299 299 300 300 300
281 281 280 280 280 280 280 280 280 280 280 280 281 280 280 280 280 279 278 278 278 278 278 278 279 278 277 278 278 277 276 277 276 277 276 276 275 275 274 274 271 273 272 272 272 273 274 273 274 274 275 275 274 275 276 275 279 282 280 275 274 279 281 284 287 288 288 288 289 289 289 289 289 290 291 292 293 293 294 295 295 296 297 298 297
280 280 280 280 280 279 280 280 280 280 280 280 280 279 279 279 278 278 278 279 278 278 278 278 277 277 277 277 277 277 277 277 276 276 276 276 276 275 274 273 272 269 271 271 272 272 273 274 274 274 274 274 275 275 278 276 276 281 279 275 274 274 279 284 286 287 287 287 288 288 288 289 289 290 290 290 291 291 292 293 293 294 293 294 294
280 280 280 279 279 280 280 280 280 279 279 279 279 279 279 279 278 278 277 277 278 278 277 277 276 277 276 276 277 277 276 276 277 277 277 276 276 275 275 275 273 270 267 269 270 272 272 274 274 274 274 274 275 276 275 274 278 279 275 274 274 273 278 283 284 285 285 287 287 287 287 288 289 289 289 290 290 290 291 291 291 291 291 291 291
280 281 280 279 279 280 279 279 279 279 279 279 279 278 278 278 277 277 277 277 277 277 277 277 276 276 277 276 277 277 276 276 276 276 276 276 276 276 275 275 274 273 271 270 269 272 271 273 274 273 273 274 275 275 276 274 279 278 275 274 274 274 280 281 282 283 284 286 286 286 287 288 288 288 288 289 289 290 291 291 290 291 290 291 292
280 280 279 279 279 278 278 278 278 278 278 278 278 278 278 277 277 277 277 277 277 277 276 277 277 277 276 276 276 276 276 275 275 275 275 275 275 275 275 275 276 274 273 273 269 271 274 273 273 274 274 273 274 274 275 275 277 277 275 274 273 277 279 278 279 281 283 284 284 286 287 288 288 288 288 288 288 289 290 290 289 289 290 290 291
280 279 279 279 278 278 278 278 278 277 277 277 277 277 277 277 277 277 276 277 277 276 276 276 277 276 276 276 276 276 275 275 274 275 274 275 274 275 275 275 275 274 274 273 272 272 274 272 273 273 274 273 274 273 273 274 276 277 274 274 274 277 275 273 277 280 281 282 283 285 286 287 287 287 288 287 288 288 289 289 289 289 289 290 291
279 279 279 279 278 278 277 278 277 277 277 277 277 277 277 277 276 277 276 276 276 276 276 276 276 275 275 275 275 274 274 274 274 274 274 274 274 274 274 274 274 274 274 273 272 271 273 273 274 273 273 274 272 273 272 273 273 273 276 274 274 273 273 273 273 277 279 281 283 284 285 286 286 286 287 286 287 287 287 288 287 287 288 289 289
279 279 279 278 277 277 277 277 277 277 277 277 276 277 277 276 276 277 276 276 276 276 277 276 275 275 275 274 273 273 274 274 274 274 273 273 273 273 273 273 273 273 274 273 272 271 270 272 272 272 272 273 271 274 272 272 272 273 273 273 273 273 273 273 273 273 279 281 282 284 285 285 285 286 286 285 286 286 287 287 286 287 288 288 288
279 279 278 278 277 277 277 278 277 277 277 277 276 276 277 277 277 277 277 277 276 276 276 276 275 274 273 273 273 273 273 272 273 273 273 273 273 273 273 273 272 272 273 273 271 269 269 269 271 270 271 272 272 272 272 273 273 273 272 272 273 274 274 274 273 274 278 281 283 284 284 284 284 284 285 285 285 285 285 286 286 286 286 287 287
278 278 277 278 277 278 278 277 277 276 276 276 276 277 277 278 278 278 277 276 276 277 277 276 275 274 274 273 273 273 273 272 272 271 271 271 272 272 272 272 272 272 272 272 272 271 268 269 269 271 271 272 271 272 273 273 272 272 272 273 273 273 273 274 273 273 276 281 282 282 282 283 283 283 284 284 283 284 285 285 285 285 285 285 285
277 277 277 278 278 278 278 277 277 277 277 277 277 277 278 278 278 278 277 277 276 276 276 276 277 275 274 274 273 272 272 272 271 271 271 270 271 271 271 271 271 271 271 272 271 272 270 269 269 271 272 271 272 272 272 271 271 272 272 272 272 272 273 273 274 275 279 280 280 281 281 281 282 282 282 282 282 283 283 283 283 284 284 284 283
277 277 277 277 278 278 278 278 278 278 278 278 278 277 277 277 277 277 277 277 276 276 275 276 276 275 274 273 273 272 272 272 272 271 270 271 270 270 270 270 270 270 271 271 271 271 270 269 269 269 270 271 270 271 272 271 271 270 271 272 272 272 272 273 274 275 276 276 275 276 278 278 279 280 280 280 281 281 282 282 282 282 281 281 281
277 277 278 278 278 278 278 278 278 278 278 278 278 277 277 277 277 277 276 276 275 275 275 275 275 274 274 273 272 272 272 273 272 271 271 270 271 270 271 270 270 270 270 270 270 270 269 269 269 270 270 270 271 269 271 272 271 271 270 270 271 273 273 273 273 275 275 276 277 278 277 277 278 276 277 278 279 280 280 281 280 280 279 280 281
278 278 278 278 278 278 278 278 279 279 278 278 278 277 277 277 276 276 276 276 275 275 274 274 275 274 274 274 273 273 273 273 272 272 271 271 271 270 270 270 270 269 269 269 268 269 269 269 269 269 269 269 269 270 271 270 269 269 271 270 269 270 272 274 274 274 275 275 273 273 275 275 274 274 276 276 277 278 278 278 278 278 278 280 282
279 278 278 279 278 278 278 278 278 278 278 278 278 277 277 276 276 276 276 276 275 275 274 274 274 274 274 273 273 273 273 275 277 276 275 275 271 270 270 270 269 269 268 267 268 267 268 268 268 270 269 269 269 269 268 268 268 268 270 270 270 272 273 273 274 274 274 272 272 271 271 271 271 271 271 271 272 274 274 276 276 276 278 281 282
279 278 278 278 278 278 278 278 278 278 278 278 280 281 280 277 276 276 276 275 275 275 275 274 274 274 273 273 274 276 277 278 278 279 279 279 278 274 271 270 269 269 266 265 266 267 267 267 268 269 268 268 268 269 268 269 270 270 270 270 270 272 273 273 273 273 273 271 270 269 269 271 270 270 270 270 271 272 272 272 272 275 279 281 282
278 278 278 278 278 278 278 278 278 278 278 278 281 283 283 282 277 276 276 276 275 275 275 274 274 274 273 274 273 276 277 278 278 280 281 281 281 280 279 277 275 270 267 266 266 267 266 266 268 267 268 268 269 269 269 269 269 270 270 272 272 273 272 271 269 271 272 270 269 267 267 270 270 268 269 270 270 271 272 271 276 278 279 280 281
278 278 278 278 278 278 278 278 278 278 278 281 283 284 284 284 281 277 276 276 276 275 274 274 274 274 274 274 274 274 274 275 275 276 279 281 282 282 281 281 279 279 277 271 269 266 266 266 266 267 268 268 269 269 268 269 269 270 272 273 273 273 271 270 270 269 271 270 267 266 266 269 270 269 268 269 270 271 271 274 277 278 280 280 281
278 278 278 278 278 278 278 278 277 278 277 281 283 284 285 285 284 280 276 276 276 275 274 274 274 274 274 274 273 273 273 276 276 275 274 275 280 282 282 283 282 282 281 281 280 273 270 268 268 268 269 269 269 269 271 270 273 271 272 273 274 272 272 270 270 269 270 270 267 265 265 267 268 267 266 269 270 270 270 273 276 278 280 280 280
278 278 278 278 278 278 278 278 277 277 277 281 283 284 285 285 286 283 276 276 276 275 274 274 274 274 274 274 273 273 273 273 274 274 274 273 272 273 275 276 276 278 282 283 282 282 277 272 270 270 271 271 270 271 272 274 272 272 273 272 273 271 270 270 271 269 269 269 266 265 264 265 266 266 266 267 269 269 269 272 277 278 279 279 279
278 278 278 278 278 278 278 278 277 277 277 282 283 285 285 286 286 286 278 276 275 275 274 274 274 274 274 274 273 273 273 272 273 274 273 272 271 270 270 270 272 272 272 273 275 276 277 275 273 273 272 272 272 272 273 273 274 274 275 272 272 271 269 267 265 266 266 268 268 265 260 265 266 265 265 266 268 268 269 272 275 276 277 278 278
278 278 278 278 278 278 278 277 277 277 277 282 283 284 285 286 286 284 279 276 275 274 274 274 274 274 274 273 273 273 273 272 274 278 277 273 270 268 267 268 268 269 269 273 275 276 274 273 273 273 272 272 275 273 274 274 275 275 271 267 265 262 262 262 263 261 261 266 268 264 260 262 265 264 265 267 267 267 268 268 273 275 276 277 278
278 278 278 278 278 278 278 277 277 277 277 281 283 284 285 286 286 283 280 277 275 274 274 274 274 274 273 273 273 273 272 272 275 278 280 279 270 268 267 267 267 266 267 269 274 278 279 279 279 279 279 279 279 280 280 281 279 273 266 265 265 260 259 261 263 260 260 264 265 265 263 261 263 263 264 266 266 266 266 267 268 272 274 276 276
278 278 278 278 278 278 278 277 277 277 278 279 283 284 284 285 285 282 280 277 276 275 275 274 273 273 273 275 274 273 272 272 276 278 279 279 273 270 268 267 266 266 267 269 269 271 277 279 279 280 280 280 280 281 281 280 279 275 266 267 263 259 260 259 260 261 261 262 264 266 260 260 263 265 264 265 265 264 266 266 268 270 272 272 273
278 278 278 278 277 277 277 278 279 278 277 278 281 283 284 285 284 282 280 277 277 276 275 275 274 273 272 274 276 275 274 274 277 278 279 278 275 273 271 268 268 268 270 269 268 268 269 271 273 275 276 278 277 276 274 277 276 274 271 268 263 261 262 261 260 259 259 258 263 266 260 260 263 265 264 262 261 264 265 266 266 267 268 268 269
Wind_Speed
5 4 3 5 5 5 6 4 5 6 6 6 7 7 7 7 7 6 6 7 7 8 7 8 7 7 8 8 7 7 7 8 7 7 7 7 8 13 20 21 22 22 22 22 22 21 21 22 21 20 21 22 21 22 22 23 23 22 24 24 24 24 24 24 23 23 23 24 24 24 24 24 24 24 23 23 24 24 25 25 25 26 26 25 24
5 5 5 5 5 4 6 5 5 5 7 7 5 7 7 7 7 6 8 7 8 7 8 8 8 7 7 7 7 7 7 8 7 7 6 7 8 10 19 20 21 22 22 23 24 23 23 23 22 21 23 23 22 22 23 24 25 25 25 23 26 25 25 25 24 24 24 24 24 24 24 24 24 24 24 24 24 25 25 26 26 26 26 26 26
6 6 5 5 5 5 5 5 5 3 6 7 5 7 7 6 7 7 7 7 7 7 8 9 7 8 7 8 7 7 8 7 7 7 8 7 7 7 11 19 21 21 22 22 22 23 24 23 21 21 21 21 23 25 24 25 25 25 26 25 24 23 24 24 24 24 24 24 24 24 24 25 24 25 25 25 24 24 25 25 25 26 26 26 26
6 5 6 6 5 5 5 6 5 5 5 8 7 6 7 7 7 7 8 7 7 8 8 8 8 7 7 8 7 8 7 6 7 7 7 7 7 7 8 9 17 21 21 22 22 23 22 22 22 22 23 24 24 24 23 23 23 23 23 23 23 23 24 24 24 24 24 25 24 25 25 25 25 25 25 25 25 25 25 25 25 25 26 26 26
5 6 6 6 6 6 5 5 5 5 6 7 10 7 8 8 8 7 8 8 9 8 8 8 8 7 7 7 7 8 6 6 6 7 7 7 7 7 7 8 8 14 20 21 22 23 22 22 22 22 22 23 22 22 21 20 21 22 23 23 23 23 23 23 23 24 24 24 24 24 25 25 25 25 25 26 26 26 26 26 25 26 25 25 25
6 6 5 5 6 6 6 6 5 7 7 7 8 7 9 9 8 8 7 8 8 7 8 9 7 7 7 6 7 7 6 7 7 7 6 7 6 8 7 7 8 8 9 17 21 21 22 22 22 22 22 22 22 21 21 21 21 22 22 22 22 23 22 23 23 23 24 24 23 24 25 25 26 26 26 26 26 26 26 26 26 26 26 26 26
6 7 6 6 6 6 6 6 6 6 8 6 8 6 6 8 8 9 8 8 8 7 8 8 8 9 7 6 7 6 6 7 6 7 7 6 7 7 8 7 7 7 7 8 12 19 21 21 21 22 22 22 22 22 22 21 21 21 21 21 21 21 22 22 23 23 23 24 24 24 24 24 24 24 25 25 26 26 26 26 26 26 26 26 27
5 5 8 6 7 7 6 5 8 7 7 7 8 8 7 6 5 9 11 8 9 8 7 8 8 9 7 6 5 5 6 6 6 6 5 6 7 7 7 7 7 7 7 7 7 10 20 19 21 21 22 22 22 22 22 22 21 21 20 20 21 21 22 22 22 23 23 24 24 24 24 24 24 24 25 25 25 25 26 26 26 26 26 26 27
5 6 7 7 5 7 6 7 7 8 7 7 7 6 8 6 6 5 10 10 10 10 8 8 8 8 6 6 6 5 6 6 6 5 4 8 7 7 7 7 7 8 7 7 7 7 12 18 18 20 21 22 22 22 22 22 22 21 21 21 21 21 21 22 22 23 23 23 24 24 24 24 24 24 24 25 25 25 26 26 27 27 28 27 27
7 7 6 5 6 7 7 7 7 7 8 7 7 6 6 8 8 6 7 10 9 10 9 8 7 6 7 6 6 6 6 6 5 4 6 7 7 7 6 6 7 7 7 7 6 7 7 11 15 16 19 20 22 22 22 22 22 22 21 21 21 21 21 22 22 22 23 23 24 24 24 24 25 25 25 25 25 26 26 26 26 26 26 26 27
6 7 7 6 6 6 7 7 6 7 8 7 7 7 6 6 11 8 7 6 9 9 10 8 8 6 7 6 5 6 5 5 5 6 6 5 5 5 5 7 6 7 7 7 6 6 7 7 7 7 10 20 20 22 22 22 22 22 22 21 21 22 22 22 23 22 23 23 24 24 24 24 25 25 25 25 25 26 26 26 26 26 26 26 26
5 7 7 6 6 6 8 7 6 7 8 9 7 7 10 10 11 13 11 9 7 9 9 11 8 8 6 6 5 5 6 5 6 6 5 6 5 5 7 5 7 7 7 6 6 7 7 6 6 6 7 12 19 19 21 22 22 22 22 22 21 21 21 21 22 22 23 23 23 23 23 24 24 24 25 25 26 26 26 26 26 26 26 26 26
5 8 8 7 7 6 6 7 5 6 7 7 7 7 7 10 9 9 14 11 7 5 4 5 11 6 6 5 6 4 4 5 6 6 6 5 5 6 5 7 7 7 5 5 7 7 7 7 6 6 7 6 9 15 18 19 20 21 22 21 21 21 21 21 22 22 22 22 22 23 23 23 24 24 24 25 25 25 26 26 26 26 27 27 26
5 7 8 8 8 6 5 7 7 7 7 7 7 8 10 10 11 7 3 11 6 1 0 3 4 6 7 3 3 3 3 5 6 6 5 6 5 6 6 7 7 5 5 6 7 7 6 6 6 6 6 7 7 7 9 10 12 20 21 22 21 21 21 21 22 22 22 23 22 23 23 23 23 24 24 25 25 25 25 26 26 26 27 27 27
4 6 7 6 7 7 6 6 7 9 9 8 8 8 9 10 10 12 8 4 5 2 2 1 5 4 3 6 1 2 1 2 2 4 5 4 4 6 5 6 6 4 4 7 6 6 5 5 6 6 7 7 7 7 7 8 10 17 19 20 20 21 21 21 21 22 22 22 22 22 23 23 23 24 24 24 25 25 26 26 27 27 28 28 28
4 6 6 6 6 8 7 7 7 6 9 9 8 9 7 7 7 10 12 10 3 2 3 1 4 8 3 1 3 3 1 1 0 1 0 2 6 5 4 4 4 4 6 8 6 5 5 5 6 6 7 7 7 7 7 6 11 12 13 17 20 20 21 20 21 21 21 22 22 22 22 23 23 24 24 25 25 26 26 27 27 27 28 28 28
4 5 6 7 6 7 8 7 7 5 7 9 8 9 7 7 10 10 10 12 5 3 4 4 3 1 6 4 2 0 2 2 1 1 2 1 4 4 4 5 5 5 6 5 3 4 3 5 5 5 6 6 6 6 6 6 6 5 7 12 19 20 21 20 21 21 21 21 21 21 22 22 23 23 24 25 25 26 26 26 27 27 28 28 28
4 5 6 7 8 7 8 8 7 6 6 8 8 7 7 8 7 9 7 4 10 6 4 3 4 5 3 1 2 2 5 2 2 1 1 1 1 1 2 3 3 4 4 4 5 4 3 5 4 6 6 6 5 6 5 6 6 6 7 11 21 21 21 21 21 21 21 21 21 22 22 22 23 23 23 24 25 26 26 27 27 27 27 27 27
5 5 6 6 7 7 7 7 7 7 6 8 8 8 7 7 5 6 8 8 8 8 9 5 3 5 4 4 6 3 4 5 2 2 1 1 1 1 2 4 2 4 4 4 3 4 3 3 4 5 6 6 6 6 7 7 9 11 16 20 20 20 19 19 19 19 20 21 21 22 22 22 23 23 23 24 24 24 25 25 26 27 27 27 27
5 6 5 6 7 7 7 7 8 6 7 7 9 7 6 4 5 6 7 7 9 11 8 7 7 2 1 4 6 6 5 6 3 2 3 1 0 2 1 5 4 4 3 3 4 4 4 4 4 5 6 6 6 6 6 6 5 7 7 18 18 18 18 18 17 17 18 19 20 20 21 22 22 22 23 23 23 23 24 24 25 26 27 27 27
3 5 4 5 6 8 7 8 8 7 6 7 6 7 10 10 9 8 8 5 5 7 9 6 7 6 5 4 5 5 5 4 3 5 3 1 2 0 3 4 2 0 2 2 3 3 3 3 3 4 5 5 5 4 5 5 5 4 8 16 17 17 18 17 17 16 17 17 18 19 19 20 21 22 22 23 23 23 23 24 25 25 27 28 28
3 4 5 4 6 7 7 8 8 8 7 8 8 8 7 8 8 8 8 8 4 6 8 7 6 6 4 6 4 2 4 3 4 5 4 2 2 1 2 1 2 4 1 3 4 3 3 3 4 4 5 5 4 3 5 6 5 3 8 17 17 18 18 18 17 16 17 17 17 18 18 19 20 21 22 23 23 24 24 24 25 26 27 27 28
5 3 4 4 5 5 7 7 7 7 8 8 9 9 8 8 7 8 8 10 7 8 7 5 6 5 4 6 6 6 6 3 5 2 3 1 2 0 2 4 2 4 3 4 4 2 2 3 4 4 4 4 3 5 6 5 5 8 14 17 18 17 18 17 17 16 16 17 17 18 18 19 20 21 22 23 24 24 24 25 25 26 26 27 27
4 5 5 4 5 5 5 6 7 7 7 6 7 8 8 8 8 7 7 7 7 8 7 8 6 5 3 4 5 5 5 6 5 6 6 4 4 2 3 1 2 4 5 6 1 2 3 4 3 4 4 4 4 4 4 5 6 12 8 16 17 18 18 18 17 17 17 17 18 18 18 19 20 20 22 23 24 24 25 25 26 26 27 28 28
6 7 6 7 6 7 7 7 7 6 7 7 7 8 8 8 8 8 8 8 7 8 8 7 8 8 6 2 5 5 5 5 6 6 5 6 5 2 0 0 1 3 2 2 2 4 1 3 3 3 4 4 3 4 3 5 4 9 11 9 17 16 17 17 17 17 17 17 17 18 18 19 20 21 22 23 23 24 25 25 26 27 27 28 28
8 8 8 7 5 6 6 6 5 6 6 7 8 7 8 8 8 8 7 5 6 7 8 6 5 6 5 6 4 6 5 5 6 6 6 6 3 3 3 1 1 3 3 2 2 1 0 1 1 1 2 3 3 3 4 5 4 9 13 8 10 15 16 16 16 17 17 17 17 17 18 18 20 21 22 22 23 24 25 26 27 27 27 28 28
9 7 7 7 6 5 5 7 7 7 6 7 7 7 7 8 7 8 6 5 6 7 6 7 8 6 5 6 5 5 5 4 5 5 5 5 6 5 5 1 1 0 2 2 3 2 4 2 2 1 1 3 3 3 3 3 5 10 11 6 5 13 15 15 16 17 16 17 17 17 18 19 20 21 21 22 23 24 25 26 27 28 28 28 28
6 6 6 6 6 6 5 6 6 6 6 7 8 8 7 9 7 7 7 3 7 8 6 7 7 7 6 4 6 4 3 4 4 5 4 5 5 5 5 4 4 2 1 3 2 3 2 2 1 3 1 2 2 2 3 4 4 10 8 5 5 7 13 15 17 16 16 17 18 18 19 19 20 20 21 22 24 25 26 27 27 27 28 28 29
7 5 7 5 5 6 7 6 6 6 6 6 7 8 7 8 8 7 7 4 7 7 6 8 6 7 6 4 5 5 3 3 3 4 4 3 4 5 5 5 4 3 1 1 3 4 2 3 2 1 2 1 3 2 3 3 6 8 4 5 5 5 11 16 16 16 17 18 18 19 19 19 19 20 21 22 24 24 25 26 27 27 28 29 30
7 6 6 7 6 6 7 7 6 6 7 7 7 8 8 7 7 6 6 6 7 5 5 7 7 6 6 5 4 5 2 3 4 3 3 4 5 5 4 3 4 5 4 4 5 3 3 2 3 2 1 2 2 4 3 3 8 7 4 4 5 5 13 15 16 16 17 18 19 19 19 19 19 20 21 22 23 24 25 26 26 27 28 29 30
8 8 7 7 7 6 7 8 7 7 6 7 7 8 8 8 7 7 5 6 8 7 5 7 6 7 6 6 4 5 3 3 3 2 2 4 5 5 4 4 3 3 5 3 2 5 4 5 2 0 1 3 3 3 3 3 5 7 4 4 4 10 13 10 15 16 17 18 18 18 18 19 19 20 21 22 23 24 25 25 26 27 29 30 30
7 8 8 8 9 9 7 8 8 7 7 7 7 8 7 8 8 8 6 6 8 8 6 5 6 6 7 6 5 5 3 3 3 3 3 3 4 5 4 5 3 3 4 5 6 8 2 3 3 3 1 2 4 3 3 3 4 8 4 4 6 10 6 5 11 16 17 18 18 17 18 19 19 20 20 22 23 23 24 25 27 27 28 30 30
9 9 9 9 8 8 8 8 9 9 9 8 6 7 7 8 6 7 6 7 9 6 7 6 4 6 6 6 5 4 4 4 5 4 4 4 3 4 4 4 5 3 6 5 7 8 4 2 3 3 2 1 3 1 3 3 5 4 5 5 6 5 6 6 6 12 16 17 17 17 18 19 19 20 20 21 22 23 24 25 26 27 28 29 29
9 9 9 7 7 8 8 8 7 7 7 8 7 7 8 8 7 5 7 7 8 7 7 7 6 5 5 6 5 5 4 5 4 5 5 5 4 4 4 5 5 6 5 6 6 4 7 1 3 3 2 1 1 0 2 5 6 5 6 5 5 5 6 6 6 7 15 16 16 17 18 18 18 19 20 20 22 23 25 26 26 26 27 27 27
6 7 8 8 8 7 7 7 6 6 7 7 6 7 8 9 9 7 7 8 9 9 8 8 7 6 5 5 6 5 4 4 5 5 4 5 4 5 5 4 5 5 5 5 4 6 6 6 4 3 2 1 2 3 3 4 5 5 7 6 5 5 5 6 6 6 12 15 16 17 17 17 18 19 20 21 23 24 25 25 25 24 25 26 27
8 5 5 6 7 8 8 7 6 6 6 6 6 6 8 8 9 9 8 7 7 7 8 8 8 7 7 6 6 6 5 6 5 5 4 4 5 5 5 5 5 6 5 5 5 5 4 5 3 4 2 1 3 2 4 4 5 5 5 6 5 5 6 5 6 6 9 14 15 16 16 16 17 18 20 22 23 23 24 24 24 24 25 26 26
6 6 5 4 6 7 8 8 7 7 7 7 7 6 5 5 6 7 7 7 6 6 7 8 7 8 7 8 7 7 6 7 5 5 5 5 5 5 6 5 6 5 4 5 5 4 5 7 5 1 2 2 3 3 3 5 5 5 4 6 5 6 5 5 5 6 10 14 14 14 14 15 17 19 20 21 22 23 23 23 23 24 25 27 28
7 6 7 6 6 7 6 7 7 7 6 6 6 6 5 5 5 5 6 6 6 6 6 6 7 7 8 7 7 8 8 9 8 6 6 6 5 6 6 6 5 4 5 4 4 5 5 6 4 5 1 3 3 3 3 3 6 8 7 4 4 4 3 4 3 4 4 4 3 5 7 10 15 19 19 20 21 22 22 22 23 24 24 25 26
8 8 7 7 6 6 6 6 6 6 6 6 6 6 5 5 5 6 6 6 5 5 5 6 6 6 6 6 7 8 9 9 8 8 8 6 7 7 7 7 5 5 6 5 4 5 5 5 4 4 6 4 4 5 2 2 4 4 7 9 8 2 3 4 7 4 3 5 5 8 10 13 16 13 16 19 20 20 21 22 21 22 23 24 24
9 9 9 9 7 5 6 6 5 5 6 5 5 5 5 6 6 6 6 6 6 5 5 5 5 6 6 6 7 8 9 8 8 7 7 8 6 6 6 5 5 6 6 5 4 5 4 5 6 6 5 5 4 4 3 2 3 3 3 3 9 11 9 4 3 7 6 5 5 4 7 10 9 11 14 14 17 19 21 20 20 21 22 23 25
7 8 7 8 8 7 6 6 5 5 6 6 6 7 7 6 6 6 6 6 6 6 5 5 5 5 6 6 7 7 8 8 11 9 9 8 7 7 6 6 6 6 5 4 5 4 4 4 7 5 6 7 6 5 5 3 3 6 3 3 6 7 7 9 4 2 3 7 7 6 6 8 10 7 7 7 8 14 15 19 16 19 21 24 27
8 7 7 7 7 8 8 7 6 6 6 5 6 10 8 7 7 6 5 6 6 6 6 5 5 6 7 6 6 9 10 11 11 13 13 13 12 9 7 7 7 7 6 5 6 6 5 6 8 6 6 9 6 5 5 3 3 3 5 5 7 7 7 8 7 1 3 3 9 12 8 5 8 8 6 8 7 9 9 9 9 15 22 26 26
8 8 8 8 8 7 7 7 7 6 6 5 9 11 12 11 6 6 7 7 6 6 6 7 8 8 7 7 6 8 8 9 10 15 15 15 15 16 14 13 11 10 8 7 7 6 7 8 6 4 7 9 8 4 4 5 3 4 5 6 6 7 8 8 11 6 4 7 8 10 13 4 5 8 7 7 8 8 9 9 20 23 24 25 26
7 7 8 9 7 7 6 6 7 6 6 6 11 12 13 13 11 8 6 6 6 7 7 7 7 7 8 7 7 6 7 8 7 8 11 15 16 17 17 16 16 17 14 10 8 6 6 7 8 9 6 9 7 3 4 3 5 5 5 6 7 6 6 6 8 10 5 7 9 10 15 5 4 6 7 6 7 7 11 18 23 23 25 26 26
7 8 9 9 9 7 8 8 7 6 6 8 12 13 14 15 15 11 5 7 6 7 8 8 8 8 7 7 7 7 7 10 8 7 7 7 12 16 17 18 18 18 17 18 15 11 7 8 9 9 10 7 7 6 5 3 3 5 6 7 6 6 7 8 7 8 7 5 7 9 12 9 4 5 7 7 6 7 11 16 22 23 25 25 25
9 8 8 9 8 8 8 8 7 6 6 8 13 14 15 16 16 13 6 7 6 7 8 8 8 9 9 8 8 8 8 7 7 8 7 7 7 7 8 7 7 11 16 19 20 21 14 10 9 12 9 7 9 4 5 5 6 6 6 6 5 6 6 8 9 8 8 4 5 6 10 4 1 7 8 8 6 9 10 17 24 23 24 24 23
11 10 10 9 8 7 6 6 7 7 7 11 14 15 16 17 17 13 6 6 6 6 7 7 9 9 9 8 8 9 8 7 8 9 8 8 6 7 7 8 9 7 7 7 8 7 8 7 9 11 7 7 8 6 6 7 8 8 5 4 4 4 6 6 5 5 6 4 5 4 6 9 4 7 8 8 9 9 8 15 21 22 22 22 22
5 5 5 6 8 8 7 7 7 9 8 13 15 16 17 17 18 10 6 7 7 7 8 9 10 9 7 8 9 10 9 7 9 14 12 6 6 7 9 9 8 8 8 9 11 10 8 7 8 8 6 7 9 8 8 8 7 2 4 4 3 1 4 7 10 1 3 3 2 2 5 6 3 7 10 9 9 9 9 10 16 20 20 19 22
7 7 7 7 6 7 8 8 9 9 7 11 16 17 17 19 13 8 7 7 7 8 10 10 9 8 8 9 9 9 8 8 9 13 14 11 7 8 9 9 9 7 10 8 12 17 19 20 22 21 20 19 19 19 18 21 10 6 5 2 4 2 3 9 10 3 3 2 3 5 4 8 3 4 11 9 9 10 10 9 8 14 17 20 22
6 5 5 5 4 6 8 9 10 10 8 8 14 16 17 18 13 9 7 7 8 8 9 9 7 7 9 12 10 9 9 9 9 13 13 10 7 9 8 10 10 10 11 6 6 9 17 21 22 22 21 20 20 21 21 13 10 6 7 6 3 3 5 4 8 6 4 2 5 3 1 5 4 4 9 10 11 5 6 6 8 9 16 15 18
6 5 5 5 5 5 7 8 7 8 6 6 13 15 16 16 12 7 7 6 8 9 8 9 7 7 8 9 14 12 10 11 12 12 14 11 8 8 9 7 11 12 13 5 8 7 7 7 10 11 12 15 10 5 6 10 9 5 4 4 4 2 6 6 6 5 7 3 3 2 2 3 5 5 4 10 9 7 5 5 4 9 10 9 10
Wind_Direction
155 151 158 138 136 142 129 130 128 127 121 115 118 117 107 104 99 102 98 92 89 84 80 75 74 64 71 69 62 59 58 57 50 44 43 46 42 32 41 44 53 54 52 51 50 50 53 48 48 53 54 55 53 54 53 51 50 47 45 40 39 38 37 34 30 31 29 31 28 26 24 23 21 19 17 15 14 13 11 9 7 5 3 2 0
144 142 149 132 135 132 139 138 131 133 124 123 123 120 119 113 105 104 100 98 94 92 89 81 75 73 64 72 64 61 61 59 52 47 50 48 44 39 37 43 44 52 55 55 52 49 45 44 43 46 51 53 51 55 52 49 48 46 45 42 39 35 33 31 28 26 27 27 26 24 23 22 20 19 17 15 13 12 11 10 8 6 4 2 0
145 144 135 133 130 125 124 118 112 115 126 122 123 123 118 116 114 117 109 106 101 97 94 88 81 76 67 70 64 64 62 57 55 51 52 47 47 46 38 39 44 44 49 53 55 53 52 53 52 48 47 49 47 50 49 47 45 44 44 39 38 34 32 30 28 26 25 26 25 23 21 19 17 16 14 12 11 10 9 7 6 5 4 2 360
144 142 139 135 128 121 119 116 116 112 115 125 121 116 111 109 108 109 106 103 97 93 88 92 87 79 75 71 68 66 61 56 55 53 54 49 48 45 43 37 38 42 42 47 51 51 51 50 49 48 45 44 45 44 45 46 45 43 39 37 36 34 31 29 28 27 26 25 24 23 21 19 18 17 14 12 10 8 6 4 3 2 1 1 359
143 139 134 132 124 116 106 105 115 115 108 109 113 109 106 105 102 107 101 101 95 91 89 86 84 80 77 69 72 67 59 56 54 53 51 49 46 46 45 40 38 35 36 40 44 48 48 48 47 47 47 48 47 47 48 47 46 43 40 35 34 33 31 27 26 25 25 24 23 21 21 19 18 16 14 12 9 7 5 2 0 358 357 357 356
130 119 118 112 109 109 113 106 105 111 109 113 111 119 116 113 117 107 104 101 98 97 97 88 82 79 72 70 68 67 63 60 50 51 50 49 47 48 43 42 39 39 32 32 36 42 44 46 46 46 45 45 45 47 47 45 43 42 40 35 32 31 30 27 24 24 22 22 21 20 19 17 16 15 13 11 8 7 5 2 360 358 356 354 352
125 130 117 114 107 104 104 115 111 104 107 108 113 101 106 119 126 109 101 94 94 90 92 89 91 84 72 66 65 60 57 60 52 48 47 46 49 46 43 42 39 41 34 36 25 33 40 42 44 44 44 44 44 45 45 44 42 40 37 36 32 31 30 27 24 23 22 22 20 19 18 16 15 13 11 9 8 6 4 2 0 357 355 353 352
102 114 118 118 125 117 116 116 111 104 101 107 108 111 108 100 95 118 110 98 97 89 84 90 85 81 70 60 55 50 60 54 50 51 37 52 49 45 43 41 40 40 39 36 36 25 36 39 41 42 44 43 44 43 42 41 40 38 37 34 33 30 30 28 23 22 21 20 19 17 17 14 13 11 10 8 7 6 3 1 359 357 355 352 351
105 106 113 117 114 117 126 116 113 111 108 102 101 111 115 104 79 65 111 116 104 97 86 87 83 76 68 65 47 51 54 49 46 43 42 54 46 44 42 38 39 40 37 38 35 31 30 38 39 39 40 43 43 42 39 37 36 34 32 32 31 29 28 28 24 22 20 19 18 17 16 14 12 10 9 8 6 4 2 1 358 356 354 352 351
115 110 103 108 120 123 119 113 116 112 107 102 101 98 104 116 94 67 89 110 111 109 102 89 84 80 70 60 51 52 49 48 44 39 49 49 46 46 40 41 42 39 38 38 37 34 35 31 36 35 35 41 42 40 38 34 33 31 30 29 31 29 26 26 24 21 19 17 16 15 14 13 11 9 8 7 6 4 3 1 358 356 354 352 350
114 116 115 117 115 113 115 116 122 118 113 110 105 102 102 107 108 90 65 75 112 107 109 105 91 82 72 55 56 51 46 49 49 51 45 44 50 46 49 37 45 38 38 37 33 39 38 35 33 35 28 37 40 40 37 32 30 30 27 26 27 27 25 24 24 20 17 15 15 13 12 11 11 9 7 6 5 3 1 359 357 355 353 352 350
117 116 110 113 115 123 120 116 119 120 118 117 120 126 124 114 110 109 100 82 77 105 111 109 88 79 76 59 51 52 48 50 53 49 45 39 36 44 47 40 45 38 37 31 37 38 41 38 41 36 35 32 36 36 35 31 27 29 27 23 23 24 23 21 22 18 15 13 12 12 11 10 9 8 6 5 3 1 359 357 355 353 352 350 349
118 123 118 109 100 95 112 111 112 109 113 120 126 121 119 119 112 113 120 111 91 97 96 103 111 71 56 63 53 37 51 53 52 42 37 27 29 50 36 48 38 39 25 35 42 39 39 39 39 41 37 37 31 32 33 29 23 25 25 23 21 21 20 19 19 16 14 11 11 10 9 8 7 5 4 3 1 359 357 355 353 352 350 348 346
125 120 121 131 128 125 121 115 114 103 101 113 115 121 123 122 120 89 51 120 121 73 114 77 54 137 131 90 37 26 66 57 51 34 29 24 27 47 42 50 43 31 23 46 43 41 39 37 43 42 41 42 37 33 27 22 18 23 25 22 20 18 18 16 15 14 11 9 8 8 7 7 5 3 2 360 358 357 355 353 351 350 348 346 344
120 118 127 129 129 129 121 115 116 123 121 118 125 127 135 138 138 131 116 42 97 48 27 52 132 121 108 95 153 72 302 12 11 36 23 21 24 46 46 52 41 30 31 51 41 35 36 35 44 43 41 42 39 35 32 23 18 22 24 24 20 20 17 14 13 11 9 7 6 5 5 4 2 1 359 357 356 354 352 350 349 348 347 346 345
117 122 117 119 129 126 121 118 125 138 133 133 136 135 137 129 129 133 131 127 110 51 27 28 132 138 126 133 189 121 51 256 59 290 63 22 40 27 39 54 43 35 42 48 33 35 37 38 47 43 44 43 40 35 32 23 14 12 9 21 22 21 17 13 10 9 8 6 4 3 3 1 0 358 356 354 352 351 350 348 347 346 345 345 344
109 118 127 127 124 124 122 123 125 132 134 134 143 148 148 146 145 141 151 143 138 125 30 36 58 26 143 112 67 117 205 204 111 204 11 29 9 8 26 37 43 46 52 43 37 44 43 48 44 48 47 44 41 37 32 20 13 355 359 13 23 20 16 12 9 6 6 4 3 1 1 360 358 356 354 352 350 348 347 345 343 344 343 341 341
115 116 120 128 127 125 125 128 127 130 134 131 132 127 138 144 160 141 122 117 135 121 103 41 77 58 61 125 162 168 170 208 110 224 325 138 308 304 348 42 60 66 60 51 40 34 38 54 47 50 48 45 39 39 33 25 19 6 9 13 21 18 14 11 7 4 3 1 0 359 358 357 356 354 352 350 348 346 344 341 340 340 339 338 336
116 121 124 125 123 123 125 125 128 129 134 130 136 144 145 143 142 126 136 132 128 123 137 158 126 50 46 71 71 58 124 136 189 100 88 317 356 337 326 2 63 77 62 59 41 46 34 53 51 54 52 44 38 30 34 24 21 17 17 18 17 15 11 9 6 3 1 359 358 357 356 354 353 351 349 348 346 344 341 339 338 336 336 335 333
127 121 128 129 126 121 125 127 129 138 140 137 139 143 125 106 116 123 126 136 140 137 149 169 134 120 39 73 72 65 58 76 93 144 150 150 276 320 287 334 17 43 58 66 45 43 44 37 50 52 52 45 37 33 31 23 17 10 5 17 13 11 8 6 4 2 359 357 355 353 352 351 349 348 346 344 342 340 338 337 336 333 331 330 330
108 125 129 132 132 134 133 132 134 140 133 128 139 147 141 137 133 131 130 117 131 135 133 167 138 152 127 69 73 69 69 77 89 70 120 110 288 266 301 328 344 67 50 40 38 45 53 58 69 62 59 50 39 32 30 29 15 3 14 15 10 8 5 3 1 359 356 354 352 350 348 347 345 343 342 340 339 337 335 334 332 331 328 328 327
115 119 125 132 135 135 138 141 140 139 143 144 142 135 135 133 136 132 128 118 112 131 136 147 137 143 138 149 111 69 52 31 37 73 51 82 177 204 211 304 333 292 313 15 360 22 23 69 78 70 65 58 39 32 38 28 3 6 17 12 7 6 3 360 357 355 353 350 350 347 345 344 341 339 339 338 336 335 334 333 331 330 329 328 326
137 130 131 140 138 141 141 142 138 140 143 148 150 141 137 127 125 119 124 128 132 116 106 110 121 118 125 136 152 154 163 161 182 163 134 139 76 249 266 214 220 300 289 339 338 22 41 84 100 82 72 56 41 35 36 20 360 17 21 10 4 2 360 356 353 351 350 349 347 345 343 341 339 338 337 337 336 335 334 332 331 329 327 325 325
142 143 150 155 146 141 138 138 141 145 151 148 137 132 128 124 122 121 118 115 121 119 123 122 117 108 109 123 131 133 123 133 161 146 141 174 143 171 191 246 273 235 293 324 323 54 68 102 99 94 76 68 44 39 37 25 1 13 35 8 2 359 355 351 348 348 347 347 345 343 340 339 338 337 337 336 336 335 333 331 330 327 325 325 325
181 168 174 168 156 147 151 149 149 153 145 137 131 128 127 122 123 122 129 135 140 134 133 143 142 140 143 129 126 118 120 126 125 128 96 121 127 127 229 207 218 297 306 14 309 334 70 91 99 79 83 64 50 39 36 30 0 10 23 12 360 354 350 345 344 344 344 343 341 338 338 338 338 338 337 336 336 334 332 330 328 327 326 324 324
175 185 170 166 169 165 155 144 137 141 142 133 129 125 125 124 125 123 122 119 115 116 118 118 105 111 124 118 106 115 127 136 133 122 134 117 119 151 161 10 128 270 297 339 309 26 26 34 68 110 82 76 58 42 40 23 2 10 17 12 355 349 343 340 340 341 341 339 336 335 336 338 337 337 337 336 334 332 330 327 325 325 324 323 323
182 174 164 168 164 153 150 142 144 143 140 130 123 119 116 111 106 110 106 117 117 116 116 121 115 109 89 107 112 101 125 133 122 124 131 140 146 164 139 153 343 107 295 316 322 251 229 295 185 219 119 91 61 39 35 32 1 10 14 10 349 340 337 335 338 339 339 335 331 333 336 336 336 336 335 334 331 329 327 325 324 324 322 321 320
167 156 166 161 159 154 149 145 142 142 141 133 130 126 126 116 114 117 115 131 120 110 117 107 106 103 105 105 101 106 106 110 105 127 130 138 129 137 126 136 149 288 343 327 333 292 211 208 294 188 135 89 70 53 46 33 4 11 15 4 345 328 327 333 337 336 334 330 330 332 334 334 334 335 333 331 330 328 326 325 324 323 321 320 319
157 157 157 157 154 156 148 145 146 143 135 134 129 126 125 121 127 129 124 129 114 118 122 111 112 112 106 109 119 124 108 96 92 108 123 118 127 142 145 153 158 138 224 318 281 219 298 189 188 254 150 90 42 6 34 32 2 7 13 351 332 323 316 333 335 332 329 328 330 332 333 333 334 333 332 330 329 327 326 325 324 322 321 319 318
156 157 156 154 157 158 149 147 147 147 141 136 132 129 123 119 125 123 131 131 115 108 114 119 122 115 112 107 120 118 116 106 119 124 131 138 136 146 146 134 142 168 180 178 263 212 253 297 195 242 313 29 18 6 29 21 356 360 354 330 321 305 318 331 328 324 323 326 329 331 333 333 332 332 331 330 329 328 326 326 325 323 322 320 317
154 158 156 159 160 162 158 151 153 150 144 140 137 131 130 126 130 130 140 135 124 122 128 124 131 124 129 129 124 121 121 119 119 127 131 135 141 136 134 129 157 159 164 150 183 282 175 246 292 315 343 324 3 354 4 15 352 344 335 308 301 305 318 315 315 315 318 324 326 330 332 331 331 331 330 330 330 329 328 327 325 323 321 318 315
162 158 162 168 168 164 165 157 154 153 148 144 142 135 131 134 140 138 152 139 128 131 132 123 130 134 138 138 142 141 141 134 153 161 152 141 138 134 138 143 154 163 153 183 209 246 243 198 264 269 292 329 334 347 350 349 333 328 304 290 289 302 302 289 296 304 311 318 323 327 329 330 332 332 332 332 331 330 329 326 324 323 321 317 317
163 168 172 172 170 166 160 164 160 160 153 148 143 137 134 137 139 141 146 143 133 133 132 128 130 141 145 142 148 150 148 168 180 171 156 146 128 131 136 140 164 174 171 190 212 256 284 220 224 251 291 0 331 74 349 325 319 308 296 286 285 285 287 285 283 290 299 310 319 323 327 331 332 333 334 334 331 330 327 325 324 321 319 317 318
169 170 170 167 166 165 163 164 163 154 149 145 145 142 143 141 142 149 150 144 137 139 141 145 149 151 145 145 154 156 176 182 184 181 167 152 153 146 164 166 185 188 199 176 224 226 263 285 296 280 280 111 271 289 339 318 306 300 291 286 280 272 279 284 284 277 291 306 315 322 328 328 331 333 334 333 331 328 325 325 324 323 322 322 320
166 171 169 165 166 162 159 157 155 155 154 149 151 149 152 153 153 159 159 152 150 153 158 161 156 147 145 155 166 163 164 184 201 194 169 169 168 169 182 184 188 198 199 200 178 231 257 269 226 237 236 265 237 284 303 277 281 282 285 282 282 278 269 275 274 276 289 304 314 325 325 326 329 332 333 331 329 326 325 326 327 325 322 320 319
162 164 163 164 159 164 160 160 160 152 150 152 155 163 161 161 160 161 160 157 156 164 164 159 158 161 163 160 177 170 170 187 202 195 191 175 176 184 187 194 192 200 202 198 212 207 232 248 266 187 244 278 283 282 273 275 269 275 268 278 268 267 268 266 266 275 279 297 317 321 323 324 328 331 331 330 327 325 325 327 326 323 321 320 320
159 152 159 164 166 167 168 164 159 161 164 161 161 162 162 161 164 161 162 158 162 171 171 165 165 166 167 180 176 171 172 186 203 203 195 194 196 189 198 197 196 205 201 201 212 214 221 248 272 253 218 254 254 255 266 281 283 272 264 269 272 265 271 256 254 258 278 305 310 314 319 325 329 330 331 329 325 324 324 323 324 324 323 322 320
156 164 163 167 174 174 168 167 164 161 158 159 161 162 160 157 157 162 159 161 167 172 169 169 171 175 175 181 180 177 179 188 202 200 195 201 196 205 206 206 199 193 205 215 206 216 231 249 253 295 251 249 292 267 232 244 303 311 304 265 249 260 261 289 256 268 285 281 282 286 319 324 325 329 329 325 324 323 321 321 324 325 325 323 321
162 165 167 169 176 174 168 162 164 160 157 160 163 161 160 162 163 162 164 165 169 172 175 175 178 179 182 184 184 186 190 197 195 196 195 200 200 214 209 205 198 189 209 213 208 223 232 257 272 251 276 264 249 277 273 278 268 267 293 320 314 198 238 285 312 295 274 290 297 325 325 321 323 327 325 324 322 320 318 320 322 323 321 319 317
168 173 173 175 169 164 166 168 163 156 160 160 160 156 162 170 171 170 172 174 173 178 174 182 184 189 193 196 195 196 198 200 197 199 186 198 197 216 215 196 197 196 210 208 211 222 241 251 256 269 258 272 267 261 262 267 288 271 227 298 306 317 319 305 287 312 315 308 310 325 320 315 317 318 321 318 316 316 316 318 319 321 319 317 318
170 172 169 165 160 164 164 163 158 160 168 175 171 172 170 178 180 177 177 180 179 180 181 185 192 199 205 206 207 205 206 206 206 199 201 194 181 208 218 190 201 201 206 204 209 214 241 244 262 255 265 265 256 261 274 239 243 278 283 275 278 282 294 307 312 316 306 324 317 313 323 322 318 325 319 312 310 316 311 315 316 316 315 319 320
166 160 159 160 165 172 166 167 167 165 180 181 182 181 183 179 179 178 175 182 185 185 184 188 202 212 215 212 217 211 208 209 211 213 213 211 207 203 199 190 197 198 202 201 210 217 221 237 248 250 263 265 253 229 249 239 246 276 286 276 284 295 300 298 297 274 347 358 328 318 316 316 310 312 317 308 309 313 304 311 307 313 318 320 319
163 159 156 164 174 171 172 172 172 182 184 181 179 189 190 187 177 183 185 189 188 190 192 194 206 212 218 218 220 220 216 216 217 221 224 224 226 224 218 206 199 190 191 201 220 204 210 233 243 229 244 267 262 201 231 258 248 249 261 270 277 295 301 314 313 321 122 9 331 319 308 332 311 305 306 301 308 309 307 303 311 316 318 319 319
160 155 166 176 168 168 169 173 185 185 184 176 188 195 196 193 188 191 193 191 190 197 198 203 213 212 216 217 222 217 221 219 213 223 229 231 231 232 230 224 217 214 202 189 201 209 212 223 240 238 228 245 263 199 239 251 262 257 255 269 278 284 290 292 288 290 323 22 331 315 299 325 307 290 297 300 302 306 303 308 313 314 318 320 321
155 165 175 168 175 170 172 181 186 183 187 185 193 199 202 204 201 192 199 197 194 203 203 207 212 215 211 215 224 226 227 223 218 217 221 237 242 241 238 237 234 229 227 224 218 209 195 215 230 245 223 232 249 237 197 216 240 261 265 268 265 270 278 281 280 292 307 4 321 299 291 305 306 303 300 302 305 309 305 308 309 312 318 319 319
168 171 174 177 171 176 178 180 184 182 190 190 199 204 207 209 209 199 200 201 206 207 207 210 215 216 211 207 217 230 226 216 217 215 219 225 229 246 251 249 245 245 242 240 240 236 214 210 215 237 240 188 231 212 210 227 249 253 263 249 251 264 266 272 294 296 296 326 278 297 291 290 3 320 302 301 308 306 300 300 307 311 315 318 318
174 177 176 175 178 171 171 176 181 192 200 197 203 208 212 213 214 210 194 200 210 215 216 217 223 223 215 212 219 231 227 212 212 209 214 219 218 230 237 245 247 242 244 248 242 243 234 215 220 236 237 213 221 218 218 231 237 250 239 219 231 266 292 304 291 239 271 251 236 275 272 301 0 311 295 303 308 299 292 301 303 307 313 317 317
151 147 159 164 173 174 177 181 189 206 208 199 205 211 214 215 215 214 196 198 211 218 222 224 226 226 216 216 223 233 234 225 218 218 218 201 213 223 233 244 248 248 247 238 241 242 235 236 236 235 218 212 218 209 220 232 236 182 102 73 67 40 320 299 293 176 225 263 215 227 273 287 347 305 300 303 300 295 298 291 297 303 309 316 319
168 175 173 179 175 174 186 192 199 212 209 202 206 211 214 216 212 215 201 201 213 218 228 228 230 225 220 219 225 233 236 236 224 222 223 207 208 221 231 241 245 250 253 247 246 246 246 246 247 248 247 242 244 247 243 243 230 155 128 166 243 183 306 300 294 282 247 154 249 223 246 283 310 312 302 301 299 293 292 285 288 299 307 317 318
164 173 177 176 174 185 195 203 205 210 214 200 208 214 216 216 213 214 208 205 220 224 236 237 228 230 227 223 223 231 235 242 229 227 225 219 218 222 223 238 249 251 255 234 228 240 246 247 247 247 247 248 249 252 254 235 207 172 152 232 235 135 266 229 267 285 284 276 256 187 219 252 305 311 303 302 295 251 254 260 286 302 313 313 315
173 162 165 176 193 200 207 212 210 214 223 204 210 218 219 219 217 217 209 210 225 234 235 245 234 225 237 230 228 229 233 242 240 233 229 223 227 231 225 227 245 250 252 197 219 225 234 239 248 245 248 249 252 216 181 207 222 188 190 197 151 152 248 246 248 298 317 283 255 142 334 273 329 306 336 325 312 283 215 262 294 309 306 313 311